Dewpoint
57 57 57 57 57 58 59 60 60 60 60 58 59 60 61 60 60 60 60 60 60 59 60 58 59 59 58 59 59 60 60 32 21 15 22 34 47 54 53 56 56 56 59 47 36 32 24 13 9 11 10 15 18 20 24 20 27 39 32 24 22 17 15 13 6 6 12 4 4 8 11 6 9 17 24 24 23 24 23 23 21 15 14 17 20 21 23 26
58 57 58 59 58 58 58 59 59 59 59 59 59 60 60 60 60 59 60 60 59 59 59 60 59 59 59 58 59 59 52 32 13 19 18 39 52 52 54 54 56 58 55 39 37 17 5 3 3 9 4 7 22 18 17 17 15 30 26 24 17 21 23 6 4 7 6 6 3 5 12 7 14 11 14 8 15 13 12 13 13 17 16 16 18 21 22 24
57 56 57 57 56 57 58 58 59 59 59 59 59 59 59 60 60 60 60 60 60 61 61 60 60 61 59 59 59 57 41 21 15 23 31 53 52 54 56 56 56 58 45 34 28 21 13 8 7 6 1 1 11 9 13 10 12 18 26 18 17 20 8 6 6 7 8 6 4 5 12 8 14 12 12 12 11 11 11 12 12 14 15 16 18 20 21 21
57 58 59 58 57 57 58 58 58 58 59 58 58 58 59 60 60 59 59 59 60 60 60 61 60 61 59 58 58 53 36 25 12 19 20 54 56 54 54 54 55 53 42 37 33 23 15 12 6 3 3 3 17 4 15 20 27 14 14 14 17 8 8 6 7 7 7 7 5 6 9 11 12 12 12 13 14 11 11 13 14 14 15 16 18 20 20 19
57 58 58 59 58 57 57 57 58 58 57 57 58 58 59 59 59 60 60 60 60 60 60 60 60 60 60 59 58 42 33 22 14 17 24 51 55 56 52 54 56 47 38 32 29 23 14 10 6 5 9 15 12 18 9 10 9 24 16 11 6 3 3 8 7 7 7 10 8 10 8 8 12 12 11 11 11 11 12 14 16 16 15 16 16 18 19 19
58 58 58 57 58 58 57 57 58 57 57 58 58 58 58 58 59 59 59 60 60 60 60 60 60 60 59 58 52 47 35 18 35 17 48 48 51 51 53 53 54 52 39 27 20 16 11 8 6 8 13 7 8 12 9 3 9 16 11 6 6 9 8 7 7 9 8 7 7 10 9 8 13 12 11 11 11 12 15 15 18 19 19 18 18 18 18 18
57 57 58 58 58 58 57 57 57 57 57 57 58 58 58 58 58 59 59 60 60 60 60 60 60 60 58 51 49 38 19 13 16 20 48 50 50 52 51 50 55 52 29 18 16 15 9 6 5 9 6 12 9 3 10 3 7 15 8 4 5 8 7 8 7 10 7 8 7 8 19 9 13 12 11 11 12 14 16 16 19 19 20 20 19 19 18 17
57 58 58 58 57 57 57 57 57 57 57 57 57 57 58 58 58 59 59 59 60 60 60 60 60 60 55 48 47 41 13 13 14 24 42 48 31 29 37 33 35 32 16 14 11 9 9 6 3 9 5 12 31 11 23 6 9 20 20 9 9 14 8 8 8 8 9 8 7 9 9 13 14 13 12 11 12 14 16 17 17 18 19 20 19 19 19 19
57 58 58 58 57 57 56 57 57 57 58 58 57 57 57 58 59 58 59 59 59 59 59 60 60 59 58 33 24 21 9 11 15 18 18 18 19 20 23 16 18 16 15 15 18 10 11 15 7 6 18 10 9 26 33 26 19 24 14 16 17 12 10 12 10 9 9 8 11 6 9 13 14 14 12 12 14 16 17 19 20 20 20 19 18 18 16 14
57 57 57 56 56 56 56 57 58 58 58 58 58 58 58 58 58 59 58 58 58 59 59 60 60 57 47 33 40 17 11 14 16 19 18 19 19 19 19 18 18 17 16 12 11 12 13 13 12 9 13 7 8 25 31 28 31 25 20 16 14 12 11 13 11 9 10 8 9 12 14 13 14 14 11 13 15 18 19 19 19 18 17 15 14 12 11 9
57 56 56 56 57 57 57 58 58 58 57 58 58 58 58 58 58 58 58 58 59 58 59 60 59 50 30 23 11 10 15 15 22 19 19 20 20 19 18 19 19 17 15 13 17 14 15 16 17 11 37 33 17 30 30 30 30 17 13 22 17 13 12 13 11 10 9 7 13 14 13 12 12 13 11 12 16 19 19 19 18 15 12 10 9 9 8 7
57 56 57 57 57 58 57 58 58 58 58 58 59 59 58 58 58 58 58 57 58 59 59 59 59 40 30 15 14 13 16 18 30 19 19 20 20 21 22 20 18 16 15 14 13 17 20 23 23 39 30 27 26 29 33 20 20 18 25 25 20 12 13 11 10 11 14 9 12 15 14 12 12 10 11 14 17 19 19 18 16 12 10 8 7 7 7 7
57 56 56 57 57 57 57 58 58 58 58 58 58 58 58 58 58 57 57 57 57 59 59 59 57 39 38 19 16 15 23 22 30 20 19 21 21 21 20 23 21 18 16 15 16 22 34 33 19 16 39 31 29 31 36 22 12 30 14 20 24 18 14 10 10 10 9 10 11 13 18 12 11 12 13 15 17 18 18 17 15 12 10 8 8 8 8 8
56 56 56 56 56 57 57 57 58 58 58 57 58 58 58 58 58 57 57 58 59 58 60 59 45 36 28 18 15 18 17 33 25 18 19 22 20 18 18 21 24 19 27 17 26 30 30 25 27 34 40 34 35 35 23 19 23 21 30 28 25 19 18 13 14 11 10 11 13 11 17 12 12 13 15 18 19 19 18 17 15 12 10 10 10 10 9 10
56 55 56 56 56 56 57 57 58 58 57 58 58 56 58 58 58 58 59 59 60 59 59 54 42 43 29 19 14 19 48 26 17 17 20 22 20 18 17 19 18 17 21 20 22 28 22 32 27 24 31 37 38 35 32 27 18 23 25 24 26 18 22 14 16 15 13 12 11 19 16 12 13 15 17 19 20 19 18 16 14 12 11 11 11 11 11 11
56 55 56 57 55 56 56 57 57 56 57 57 57 58 56 58 59 58 59 58 59 57 52 46 48 24 20 10 15 39 26 16 16 17 20 22 21 19 19 19 18 16 17 19 20 29 18 16 20 37 27 26 29 18 24 22 27 24 20 17 17 21 18 17 15 16 19 17 18 20 16 14 14 17 19 19 19 18 17 15 14 13 12 12 12 12 13 14
56 55 57 56 55 55 56 56 56 55 56 57 56 55 56 55 56 57 56 55 51 47 36 32 29 31 20 16 15 15 17 16 19 17 17 23 22 21 20 18 16 15 17 23 18 25 20 16 32 31 35 16 18 25 21 21 22 20 22 18 21 14 14 17 16 16 21 18 16 17 16 14 15 18 18 18 18 17 16 15 14 14 13 13 13 13 14 14
55 56 57 55 55 55 56 56 55 55 56 57 56 53 45 54 51 55 52 53 50 50 48 32 37 29 19 16 14 16 18 18 19 19 18 22 28 22 20 18 17 15 14 13 15 15 19 22 25 22 21 20 17 19 22 20 20 18 20 18 18 17 16 20 20 23 20 21 17 15 15 15 17 18 18 18 17 17 16 15 15 14 14 14 14 15 15 16
56 57 56 55 56 56 56 56 55 55 56 57 55 56 53 55 55 34 35 25 39 36 33 29 28 24 21 16 17 17 19 19 20 17 17 21 23 24 22 20 18 14 25 15 23 25 27 27 26 21 19 19 17 22 21 22 21 22 22 23 24 20 15 17 19 23 24 19 19 16 15 15 17 18 18 18 17 16 16 16 15 15 15 15 15 15 16 17
56 56 56 56 56 55 55 56 55 54 54 54 49 54 51 47 43 34 36 34 27 28 33 34 18 26 14 16 17 20 21 23 16 16 18 21 21 21 19 17 32 23 28 29 28 26 36 22 22 20 22 18 15 17 17 16 19 23 28 26 24 20 20 17 19 25 27 21 17 17 17 16 17 17 17 17 17 16 16 16 16 16 15 15 15 16 16 16
56 56 55 56 55 55 55 55 56 54 53 53 55 45 39 41 35 23 32 32 34 29 27 35 29 16 17 18 19 20 19 14 14 16 20 24 19 20 17 21 29 29 25 38 30 34 24 20 21 23 17 16 17 15 18 22 28 27 25 22 16 20 14 13 21 22 30 22 17 18 17 17 18 18 18 18 17 15 15 15 15 16 16 16 17 17 18 17
56 56 56 56 56 55 55 56 54 54 54 55 47 41 39 41 43 47 45 26 40 41 26 16 16 16 18 19 19 22 22 12 13 16 21 22 17 22 25 18 19 21 23 29 24 21 18 19 20 17 17 19 20 17 19 25 28 25 15 15 15 16 18 25 24 26 24 21 17 18 17 17 17 18 18 17 17 17 16 16 16 16 16 17 17 18 18 18
56 55 56 56 55 56 54 55 55 54 56 46 47 43 42 46 44 48 44 29 33 45 36 33 17 15 16 17 19 22 13 14 14 15 19 20 18 22 28 20 23 22 18 20 23 21 18 20 16 19 21 21 18 17 20 26 29 17 15 15 14 21 18 14 24 27 21 23 18 18 17 17 18 18 17 17 17 17 18 18 18 21 16 16 17 18 19 18
56 56 56 54 55 53 54 55 55 54 48 45 44 45 47 47 44 47 48 31 28 38 36 37 21 17 18 17 19 19 14 15 16 16 20 20 21 28 25 24 23 24 19 21 18 18 18 17 16 21 26 16 20 16 18 20 21 24 20 19 13 19 18 19 15 18 28 24 21 19 17 17 18 17 17 17 17 17 18 17 18 18 20 20 20 20 20 19
55 53 53 54 53 53 54 54 48 43 46 51 44 46 46 48 47 48 47 32 29 33 32 41 39 16 18 21 20 20 18 16 17 19 22 21 22 26 28 35 28 24 26 27 23 20 17 16 19 18 14 16 19 15 17 20 18 23 23 22 19 19 19 20 21 22 19 19 22 20 14 14 17 17 17 17 17 17 17 18 17 18 18 18 18 19 20 21
53 52 52 53 53 52 54 45 47 48 48 41 45 44 48 47 52 49 43 35 22 23 41 26 20 16 22 20 18 32 32 24 19 20 27 23 26 27 33 25 27 27 30 26 23 23 19 17 20 21 19 21 20 15 18 21 20 13 18 26 25 22 22 22 21 21 13 14 19 25 -1 4 16 16 17 18 17 17 18 18 18 17 18 18 20 18 19 19
52 51 52 52 53 53 51 48 44 49 49 48 47 46 48 49 54 53 44 25 20 30 27 36 24 28 36 22 20 33 17 22 20 20 22 23 24 37 32 25 32 35 34 32 27 20 21 21 22 19 16 20 17 12 14 19 21 11 21 21 22 23 21 22 23 21 15 20 21 16 6 -6 13 16 18 18 17 17 17 17 18 17 17 18 18 20 20 21
51 50 50 52 52 51 49 47 48 44 43 48 47 45 49 46 51 48 36 12 10 32 23 29 28 34 24 26 21 19 20 27 24 20 24 23 25 36 25 27 25 28 33 32 18 25 20 24 24 21 21 18 17 17 19 23 19 14 17 22 20 24 23 22 20 18 14 8 12 5 14 -4 10 16 18 18 16 16 17 17 17 18 18 18 20 20 21 21
50 50 50 51 52 51 56 49 50 47 46 49 50 48 52 53 47 44 27 14 21 31 39 24 40 26 25 30 23 27 30 27 24 30 26 27 23 34 23 31 25 23 25 24 17 23 27 24 28 23 21 18 24 18 19 23 15 17 16 22 25 26 26 26 19 16 11 8 8 5 9 2 -2 15 16 18 16 17 17 18 17 18 18 19 20 20 21 22
53 49 49 51 54 57 46 51 44 49 48 50 51 51 51 47 45 25 14 9 32 23 31 32 24 25 29 28 27 23 23 25 31 30 27 24 21 23 35 37 34 26 23 25 23 26 22 31 34 25 19 14 18 18 25 22 22 23 22 18 21 24 22 19 17 14 4 -1 6 9 10 6 0 13 14 16 15 16 18 18 19 20 19 20 20 21 22 22
53 49 48 50 45 45 47 42 48 49 52 51 50 48 47 46 26 17 3 16 33 30 38 33 30 34 27 25 21 26 32 28 27 29 26 27 24 24 27 29 28 26 24 26 26 29 31 31 25 24 19 18 15 17 25 26 28 17 11 6 2 20 15 8 2 1 -5 -4 4 -3 7 12 0 8 14 17 18 17 17 17 18 19 19 20 21 22 22 21
54 51 49 45 49 52 45 51 48 52 52 52 51 48 44 26 23 14 18 41 25 23 27 23 33 28 28 30 26 25 23 27 29 27 24 20 22 20 20 20 22 22 19 11 21 27 20 21 25 29 25 17 13 9 5 28 18 7 3 4 2 -3 -2 -5 -4 -3 -6 -5 -10 -8 9 -1 -10 13 16 17 18 18 19 20 19 19 20 20 21 22 21 21
54 54 51 46 47 49 48 49 49 51 52 49 49 47 37 18 9 18 18 22 21 30 28 33 31 28 28 28 24 28 30 25 28 25 30 24 22 24 25 23 24 23 15 18 17 20 17 26 19 21 25 21 14 0 3 10 14 6 -1 3 7 0 -4 -7 -6 -7 -3 -1 1 -5 10 -3 7 14 16 16 18 19 19 19 20 20 20 20 22 22 23 23
52 53 52 46 48 49 49 50 51 51 51 48 43 41 24 16 12 20 17 22 28 34 33 31 30 31 28 18 27 28 23 29 27 23 25 23 20 19 20 22 23 21 23 18 8 11 11 12 15 19 13 22 17 14 17 16 16 10 12 -3 7 5 -1 -1 -3 -4 -1 3 2 9 2 6 -1 15 16 16 18 19 19 19 20 20 20 20 20 21 22 20
52 53 52 49 49 49 51 50 53 49 49 42 42 25 17 14 15 18 21 23 27 30 29 33 31 30 27 27 27 30 27 22 28 25 21 18 18 18 20 20 23 22 24 21 15 17 17 13 19 24 23 20 21 23 22 19 14 10 12 9 7 6 7 6 3 4 5 5 3 5 4 9 12 17 18 18 18 18 19 19 20 19 20 20 20 20 21 20
52 55 57 51 48 46 51 51 50 50 46 47 21 19 18 21 18 23 26 33 32 29 26 29 30 24 15 24 26 23 34 23 24 24 22 21 22 20 24 25 21 21 19 18 14 11 16 9 23 25 23 12 15 23 21 17 -1 -5 -3 1 4 13 10 11 9 10 5 6 4 -8 -8 12 15 15 16 17 17 17 17 18 19 19 20 20 20 20 22 23
53 54 45 48 48 49 47 50 48 47 47 30 21 18 24 26 32 32 33 29 31 31 28 17 19 24 17 18 17 20 23 27 20 19 14 25 17 22 22 24 26 24 19 18 21 16 11 12 23 23 18 20 19 22 23 22 13 4 2 0 15 16 16 8 4 2 2 -6 -10 -7 -1 -1 -3 -1 15 16 15 16 17 18 18 18 19 18 18 17 17 19
50 48 50 45 49 50 48 46 48 45 39 24 24 25 29 29 34 34 34 33 32 33 27 22 22 27 20 15 15 19 22 20 18 20 20 22 14 26 24 21 25 19 22 25 20 18 19 16 14 16 18 23 27 22 22 21 18 4 4 18 6 2 2 -3 -2 -2 -7 -9 -2 -4 -4 2 2 8 13 13 14 14 14 15 15 17 19 18 17 17 18 19
51 50 40 45 50 51 51 45 45 51 30 26 27 25 31 31 33 34 33 33 34 29 20 25 22 25 23 19 19 21 21 17 19 14 19 18 18 25 22 24 24 23 23 25 18 16 21 12 10 17 14 19 19 21 10 6 20 23 19 9 16 8 7 1 3 4 -1 -0 -5 -4 0 -1 11 13 13 11 12 13 10 11 12 12 14 15 16 17 18 19
48 47 35 53 49 55 49 48 35 30 27 24 26 28 33 31 34 35 33 35 30 29 23 24 28 18 23 23 23 20 22 22 16 17 21 21 20 26 20 20 22 23 25 28 23 22 17 9 10 12 20 18 10 6 8 7 8 7 7 8 10 9 10 4 6 5 1 -2 -1 -1 -5 -5 6 14 12 12 14 15 14 14 13 15 17 17 18 19 20 19
45 44 41 48 46 53 57 39 25 25 26 26 30 33 35 31 34 32 37 35 37 37 30 27 25 20 25 22 21 25 21 15 19 18 20 22 19 21 26 23 27 24 25 26 22 17 17 3 6 2 8 7 14 18 16 12 10 6 6 7 6 10 4 3 1 10 6 0 -4 -3 -5 -0 15 16 13 16 13 15 15 14 12 15 17 17 20 20 19 18
44 30 33 41 48 47 42 26 28 31 28 28 30 36 29 34 32 33 33 36 36 25 30 30 28 28 25 26 25 22 23 17 21 20 21 19 23 19 27 32 31 28 20 17 13 21 16 12 8 11 -1 14 12 13 19 20 17 16 9 6 8 10 10 6 -4 -4 5 3 4 8 4 3 15 16 14 15 13 14 15 15 14 16 16 19 19 17 15 14
35 31 45 47 51 51 26 25 30 28 26 30 35 34 36 33 30 30 32 33 31 31 28 27 27 29 29 27 26 22 25 19 23 16 23 23 23 23 29 32 30 29 27 20 20 18 23 14 8 5 14 17 16 19 15 17 17 18 12 8 6 13 12 8 7 9 6 3 2 3 2 2 16 17 15 15 16 14 12 13 13 15 15 15 15 13 12 12
36 32 38 38 46 51 28 23 23 27 28 33 29 28 36 32 33 32 30 31 30 28 28 27 30 30 27 28 23 23 25 17 23 22 21 22 21 30 31 31 30 19 23 19 18 24 15 -2 0 8 2 11 11 10 12 15 16 11 11 9 11 15 13 13 12 10 4 5 3 0 -2 1 12 19 16 16 16 15 15 16 16 15 14 11 10 10 10 10
38 37 29 30 32 36 33 34 25 26 28 29 30 31 33 31 34 33 33 29 31 27 29 25 27 29 27 27 25 24 25 23 20 21 17 21 22 29 31 30 28 21 27 30 25 23 19 11 3 -0 -5 -7 -9 -5 6 9 6 3 11 13 12 11 14 9 7 9 6 5 6 4 3 6 8 16 17 16 16 15 14 14 13 11 10 9 9 9 8 8
39 23 35 29 32 31 31 33 29 28 27 26 25 27 27 28 32 33 37 31 30 30 24 28 29 25 24 26 25 23 23 25 22 17 16 17 19 26 27 29 28 25 29 29 26 21 17 12 4 -3 -1 1 2 4 11 13 8 8 7 14 12 14 16 11 9 8 7 4 4 7 7 6 5 3 5 8 10 10 10 10 10 10 8 8 8 8 8 7
35 31 30 26 36 29 31 33 34 32 27 31 20 27 23 28 29 31 35 26 28 30 27 29 28 26 25 26 23 22 23 23 23 19 15 16 17 24 28 26 27 30 29 28 26 16 17 15 5 10 1 4 4 3 5 11 3 4 8 10 17 15 15 12 11 8 6 7 2 4 4 5 3 4 8 10 11 11 10 10 9 8 7 8 8 8 12 7
28 30 36 36 35 29 25 26 36 34 35 29 23 29 26 27 26 23 32 29 29 23 26 27 27 27 26 26 27 19 22 21 21 19 17 16 21 21 20 27 21 26 28 19 17 14 8 8 15 8 5 7 7 5 5 7 6 4 4 5 7 12 16 11 11 12 10 7 2 0 3 7 7 9 11 12 11 10 9 8 8 8 8 8 8 8 8 7
35 33 36 38 30 28 33 33 38 31 29 28 24 30 26 26 24 27 29 26 30 25 27 21 27 26 26 25 25 19 22 17 18 22 22 19 21 18 18 23 24 24 19 12 16 16 13 14 14 11 8 8 8 8 10 7 4 4 8 6 5 5 10 14 14 14 13 12 11 11 11 10 11 12 12 13 12 10 9 10 9 8 8 9 9 8 7 7
30 36 25 33 30 26 27 29 33 30 26 28 23 27 28 25 28 30 29 29 22 26 28 25 27 27 27 26 26 19 24 27 23 19 21 22 18 19 18 15 17 14 12 13 17 17 13 13 12 10 9 9 8 9 6 7 7 5 5 5 5 5 4 5 8 11 15 15 15 15 14 13 14 13 13 12 8 8 8 8 8 8 9 9 9 8 8 8
42 43 36 26 27 26 28 29 33 28 24 26 24 28 28 26 29 30 29 31 29 28 29 28 28 26 26 25 24 27 28 27 28 28 24 22 20 22 19 17 19 17 16 17 18 20 13 9 9 10 9 3 6 5 7 1 -3 -3 -5 -3 -0 2 5 7 10 12 11 12 13 12 11 12 12 10 9 9 8 7 5 7 9 10 10 10 9 9 9 9
43 43 45 42 23 23 21 26 28 33 24 28 31 31 30 32 31 29 26 31 31 32 32 32 30 28 26 24 27 29 28 28 29 29 27 25 23 22 24 24 21 21 17 18 19 17 13 12 9 7 2 2 -7 3 -3 -5 -0 4 7 5 6 7 6 10 12 13 13 13 11 10 9 9 8 11 9 8 6 5 7 9 10 10 11 10 10 10 9 7